,,PA_Meas_PMT16A,,PR_Meas_QMR101_102,,RH_Meas_QMH101,,SR_Meas_QMS101,,TA_Meas_QMH101,,GenWind,,GenWind,
time,status,PA,status,PR,status,RH,status,SR,status,TA,status,DirAvg,status,SpdAvg,
2013-09-03, 00:00:04,VALID,918.771,VALID,0,VALID,95.2546,VALID,0,VALID,19.6068,VALID,222,VALID,0,
2013-09-03, 00:01:04,VALID,918.807,VALID,0,VALID,95.2775,VALID,0,VALID,19.6263,VALID,233,VALID,0,
2013-09-03, 00:02:04,VALID,918.784,VALID,0,VALID,95.3994,VALID,0,VALID,19.6458,VALID,237,VALID,0,
2013-09-03, 00:03:04,VALID,918.813,VALID,0,VALID,95.5214,VALID,0,VALID,19.6653,VALID,224,VALID,0,
2013-09-03, 00:04:04,VALID,918.826,VALID,0,VALID,95.6053,VALID,0,VALID,19.6848,VALID,200,VALID,0,
2013-09-03, 00:05:04,VALID,918.837,VALID,0,VALID,95.6662,VALID,0,VALID,19.6848,VALID,211,VALID,0,
2013-09-03, 00:06:04,VALID,918.856,VALID,0,VALID,95.6967,VALID,0,VALID,19.6848,VALID,212,VALID,0,
2013-09-03, 00:07:04,VALID,918.831,VALID,0,VALID,95.7577,VALID,0,VALID,19.7043,VALID,223,VALID,0,
2013-09-03, 00:08:04,VALID,918.84,VALID,0,VALID,95.8111,VALID,0,VALID,19.7028,VALID,184,VALID,0,
2013-09-03, 00:09:04,VALID,918.815,VALID,0,VALID,95.8187,VALID,0,VALID,19.7028,VALID,201,VALID,0,
2013-09-03, 00:10:04,VALID,918.765,VALID,0,VALID,95.834,VALID,0,VALID,19.7028,VALID,216,VALID,0,
2013-09-03, 00:11:04,VALID,918.758,VALID,0,VALID,95.834,VALID,0,VALID,19.7433,VALID,207,VALID,0,
2013-09-03, 00:12:04,VALID,918.745,VALID,0,VALID,95.8645,VALID,0,VALID,19.7628,VALID,202,VALID,0,
2013-09-03, 00:13:04,VALID,918.734,VALID,0,VALID,95.8416,VALID,0,VALID,19.7628,VALID,202,VALID,0,
2013-09-03, 00:14:04,VALID,918.699,VALID,0,VALID,95.8797,VALID,0,VALID,19.7823,VALID,207,VALID,0,
2013-09-03, 00:15:04,VALID,918.674,VALID,0,VALID,95.8416,VALID,0,VALID,19.7808,VALID,189,VALID,0,
2013-09-03, 00:16:04,VALID,918.639,VALID,0,VALID,95.8416,VALID,0,VALID,19.8198,VALID,189,VALID,0,
2013-09-03, 00:17:04,VALID,918.62,VALID,0,VALID,95.8263,VALID,0,VALID,19.8393,VALID,189,VALID,0,
2013-09-03, 00:18:04,VALID,918.592,VALID,0,VALID,95.7806,VALID,0,VALID,19.8198,VALID,189,VALID,0,
2013-09-03, 00:19:04,VALID,918.572,VALID,0,VALID,95.773,VALID,0,VALID,19.8393,VALID,189,VALID,0,
2013-09-03, 00:20:04,VALID,918.528,VALID,0,VALID,95.712,VALID,0,VALID,19.8393,VALID,190,VALID,0,
2013-09-03, 00:21:04,VALID,918.486,VALID,0,VALID,95.651,VALID,0.107441,VALID,19.8588,VALID,190,VALID,0,
2013-09-03, 00:22:04,VALID,918.476,VALID,0,VALID,95.5443,VALID,0,VALID,19.8003,VALID,182,VALID,0,
2013-09-03, 00:23:04,VALID,918.424,VALID,0,VALID,95.4071,VALID,0,VALID,19.7808,VALID,184,VALID,0,
2013-09-03, 00:24:04,VALID,918.364,VALID,0,VALID,95.2698,VALID,0,VALID,19.7808,VALID,228,VALID,0,
2013-09-03, 00:25:04,VALID,918.369,VALID,0,VALID,94.8505,VALID,0,VALID,19.8378,VALID,176,VALID,0,
2013-09-03, 00:26:04,VALID,918.316,VALID,0,VALID,94.4465,VALID,0,VALID,19.8783,VALID,194,VALID,0,
2013-09-03, 00:27:04,VALID,918.326,VALID,0,VALID,94.2254,VALID,0,VALID,19.8768,VALID,178,VALID,0,
2013-09-03, 00:28:04,VALID,918.289,VALID,0,VALID,93.8061,VALID,0.107441,VALID,19.8783,VALID,191,VALID,0,
2013-09-03, 00:29:04,VALID,918.283,VALID,0,VALID,93.7528,VALID,0,VALID,19.8783,VALID,176,VALID,0,
2013-09-03, 00:30:04,VALID,918.289,VALID,0,VALID,93.5469,VALID,0,VALID,19.8393,VALID,171,VALID,0,
2013-09-03, 00:31:04,VALID,918.251,VALID,0,VALID,93.3182,VALID,0.107441,VALID,19.8393,VALID,179,VALID,0,
2013-09-03, 00:32:04,VALID,918.254,VALID,0,VALID,92.6474,VALID,0,VALID,19.8393,VALID,182,VALID,0,
2013-09-03, 00:33:04,VALID,918.23,VALID,0,VALID,92.3348,VALID,0,VALID,19.8588,VALID,176,VALID,0,
2013-09-03, 00:34:04,VALID,918.257,VALID,0,VALID,92.1519,VALID,0,VALID,19.8978,VALID,168,VALID,0,
2013-09-03, 00:35:04,VALID,918.212,VALID,0,VALID,92.1595,VALID,0,VALID,19.8783,VALID,177,VALID,0,
2013-09-03, 00:36:04,VALID,918.211,VALID,0,VALID,91.9613,VALID,0,VALID,19.8588,VALID,183,VALID,0,
2013-09-03, 00:37:04,VALID,918.22,VALID,0,VALID,92.1747,VALID,0,VALID,19.8783,VALID,174,VALID,0,
2013-09-03, 00:38:04,VALID,918.204,VALID,0,VALID,92.0604,VALID,0,VALID,19.8393,VALID,176,VALID,0,
2013-09-03, 00:39:04,VALID,918.203,VALID,0,VALID,92.2738,VALID,0,VALID,19.8198,VALID,171,VALID,0,
2013-09-03, 00:40:04,VALID,918.203,VALID,0,VALID,92.0527,VALID,0,VALID,19.7988,VALID,182,VALID,0,
2013-09-03, 00:41:04,VALID,918.189,VALID,0,VALID,91.8469,VALID,0,VALID,19.8003,VALID,179,VALID,0,
2013-09-03, 00:42:04,VALID,918.151,VALID,0,VALID,91.9079,VALID,0,VALID,19.8198,VALID,177,VALID,0,
2013-09-03, 00:43:04,VALID,918.128,VALID,0,VALID,91.7554,VALID,0,VALID,19.8003,VALID,170,VALID,0,
2013-09-03, 00:44:04,VALID,918.089,VALID,0,VALID,91.298,VALID,0,VALID,19.8393,VALID,171,VALID,0,
2013-09-03, 00:45:04,VALID,918.1,VALID,0,VALID,91.1456,VALID,0,VALID,19.8588,VALID,173,VALID,0,
2013-09-03, 00:46:04,VALID,918.095,VALID,0,VALID,89.9563,VALID,0,VALID,19.8603,VALID,141,VALID,0,
2013-09-03, 00:47:04,VALID,918.068,VALID,0,VALID,89.1177,VALID,0,VALID,19.8588,VALID,109,VALID,0,
2013-09-03, 00:48:04,VALID,918.058,VALID,0,VALID,89.4303,VALID,0,VALID,19.8588,VALID,145,VALID,0,
2013-09-03, 00:49:04,VALID,918.048,VALID,0,VALID,89.5523,VALID,0,VALID,19.8588,VALID,154,VALID,0,
2013-09-03, 00:50:04,VALID,918.014,VALID,0,VALID,88.8204,VALID,0,VALID,19.8393,VALID,123,VALID,0,
2013-09-03, 00:51:04,VALID,918.016,VALID,0,VALID,88.8738,VALID,0,VALID,19.8783,VALID,122,VALID,0,
2013-09-03, 00:52:04,VALID,918.006,VALID,0,VALID,88.1953,VALID,0,VALID,19.8783,VALID,114,VALID,0,
2013-09-03, 00:53:04,VALID,917.983,VALID,0,VALID,87.8446,VALID,0.107441,VALID,19.8378,VALID,128,VALID,0,
2013-09-03, 00:54:04,VALID,917.988,VALID,0,VALID,87.3034,VALID,0.107441,VALID,19.9353,VALID,108,VALID,0,
2013-09-03, 00:55:04,VALID,917.958,VALID,0,VALID,87.3643,VALID,0,VALID,19.9368,VALID,128,VALID,0,
2013-09-03, 00:56:04,VALID,917.972,VALID,0,VALID,87.5168,VALID,0,VALID,19.9368,VALID,174,VALID,0,
2013-09-03, 00:57:04,VALID,917.989,VALID,0,VALID,86.1675,VALID,0,VALID,19.9758,VALID,105,VALID,0,
2013-09-03, 00:58:05,VALID,917.946,VALID,0,VALID,85.9693,VALID,0,VALID,20.0148,VALID,119,VALID,0,
2013-09-03, 00:59:05,VALID,918.001,VALID,0,VALID,85.893,VALID,0,VALID,20.0343,VALID,109,VALID,0,
2013-09-03, 01:00:05,VALID,918.002,VALID,0,VALID,85.8397,VALID,0,VALID,20.0343,VALID,111,VALID,0,
2013-09-03, 01:01:05,VALID,917.986,VALID,0,VALID,86.1065,VALID,0,VALID,20.0133,VALID,109,VALID,0,
2013-09-03, 01:02:05,VALID,917.967,VALID,0,VALID,85.6033,VALID,0,VALID,20.0343,VALID,82,VALID,0,
2013-09-03, 01:03:05,VALID,917.977,VALID,0,VALID,83.7204,VALID,0,VALID,20.0928,VALID,95,VALID,0,
2013-09-03, 01:04:05,VALID,917.993,VALID,0,VALID,82.0508,VALID,0,VALID,20.2473,VALID,99,VALID,0,
2013-09-03, 01:05:05,VALID,917.983,VALID,0,VALID,81.967,VALID,0.107441,VALID,20.3464,VALID,104,VALID,0,
2013-09-03, 01:06:05,VALID,918.023,VALID,0,VALID,82.6836,VALID,0,VALID,20.3464,VALID,111,VALID,0,
2013-09-03, 01:07:05,VALID,918.017,VALID,0,VALID,82.7979,VALID,0,VALID,20.3269,VALID,99,VALID,0,
2013-09-03, 01:08:05,VALID,918.015,VALID,0,VALID,81.7916,VALID,0.107441,VALID,20.3269,VALID,49,VALID,0,
2013-09-03, 01:09:05,VALID,918.037,VALID,0,VALID,81.2199,VALID,0,VALID,20.3659,VALID,83,VALID,0,
2013-09-03, 01:10:05,VALID,918.021,VALID,0,VALID,81.197,VALID,0,VALID,20.4439,VALID,78,VALID,0,
2013-09-03, 01:11:05,VALID,918.038,VALID,0,VALID,81.2351,VALID,0,VALID,20.4244,VALID,114,VALID,0,
2013-09-03, 01:12:05,VALID,918.077,VALID,0,VALID,81.1589,VALID,0,VALID,20.4244,VALID,65,VALID,0,
2013-09-03, 01:13:05,VALID,918.029,VALID,0,VALID,81.1055,VALID,0,VALID,20.4618,VALID,152,VALID,0,
2013-09-03, 01:14:05,VALID,918.062,VALID,0,VALID,82.6531,VALID,0,VALID,20.5024,VALID,184,VALID,0,
2013-09-03, 01:15:05,VALID,918.057,VALID,0,VALID,82.7064,VALID,0,VALID,20.4829,VALID,184,VALID,0,
2013-09-03, 01:16:05,VALID,918.013,VALID,0,VALID,82.2948,VALID,0.107441,VALID,20.4439,VALID,237,VALID,0,
2013-09-03, 01:17:05,VALID,918.04,VALID,0,VALID,83.5755,VALID,0,VALID,20.4244,VALID,243,VALID,0,
2013-09-03, 01:18:05,VALID,918.043,VALID,0,VALID,84.0329,VALID,0,VALID,20.3058,VALID,244,VALID,0,
2013-09-03, 01:19:05,VALID,918.033,VALID,0,VALID,84.841,VALID,0,VALID,20.2489,VALID,244,VALID,0,
2013-09-03, 01:20:05,VALID,918.046,VALID,0,VALID,85.7558,VALID,0,VALID,20.1513,VALID,244,VALID,0,
2013-09-03, 01:21:05,VALID,917.998,VALID,0,VALID,86.5563,VALID,0,VALID,20.0148,VALID,244,VALID,0,
2013-09-03, 01:22:05,VALID,918.031,VALID,0,VALID,87.1966,VALID,0,VALID,19.9368,VALID,244,VALID,0,
2013-09-03, 01:23:05,VALID,917.99,VALID,0,VALID,86.6859,VALID,0,VALID,19.8783,VALID,79,VALID,0,
2013-09-03, 01:24:05,VALID,917.99,VALID,0,VALID,86.1217,VALID,0,VALID,19.8003,VALID,155,VALID,0,
2013-09-03, 01:25:05,VALID,917.993,VALID,0,VALID,87.2881,VALID,0,VALID,19.8393,VALID,195,VALID,0,
2013-09-03, 01:26:05,VALID,917.961,VALID,0,VALID,87.4863,VALID,0,VALID,19.8003,VALID,195,VALID,0,
2013-09-03, 01:27:05,VALID,917.966,VALID,0,VALID,87.6769,VALID,0,VALID,19.7808,VALID,195,VALID,0,
2013-09-03, 01:28:05,VALID,917.916,VALID,0,VALID,87.0442,VALID,0,VALID,19.7208,VALID,195,VALID,0,
2013-09-03, 01:29:05,VALID,917.911,VALID,0,VALID,86.8764,VALID,0,VALID,19.7418,VALID,200,VALID,0,
2013-09-03, 01:30:05,VALID,917.867,VALID,0,VALID,85.9769,VALID,0,VALID,19.7808,VALID,135,VALID,0,
2013-09-03, 01:31:05,VALID,917.851,VALID,0,VALID,85.55,VALID,0,VALID,19.7988,VALID,158,VALID,0,
2013-09-03, 01:32:05,VALID,917.867,VALID,0,VALID,84.1778,VALID,0,VALID,19.8588,VALID,105,VALID,0,
2013-09-03, 01:33:05,VALID,917.833,VALID,0,VALID,83.8271,VALID,0,VALID,19.9758,VALID,150,VALID,0,
2013-09-03, 01:34:05,VALID,917.755,VALID,0,VALID,81.8526,VALID,0,VALID,20.0148,VALID,206,VALID,0,
2013-09-03, 01:35:05,VALID,917.732,VALID,0,VALID,82.4701,VALID,0,VALID,20.1693,VALID,132,VALID,0,
2013-09-03, 01:36:05,VALID,917.756,VALID,0,VALID,83.2706,VALID,0.107441,VALID,20.1108,VALID,155,VALID,0,
2013-09-03, 01:37:05,VALID,917.685,VALID,0,VALID,83.6441,VALID,0,VALID,20.1123,VALID,197,VALID,0,
2013-09-03, 01:38:05,VALID,917.626,VALID,0,VALID,83.9643,VALID,0,VALID,20.1123,VALID,17,VALID,0,
2013-09-03, 01:39:05,VALID,917.623,VALID,0,VALID,83.2934,VALID,0,VALID,20.0928,INVALID,360,VALID,0,
2013-09-03, 01:40:05,VALID,917.563,VALID,0,VALID,82.958,VALID,0,VALID,20.0928,VALID,348,VALID,0,
2013-09-03, 01:41:05,VALID,917.519,VALID,0,VALID,82.615,VALID,0,VALID,20.0928,VALID,251,VALID,0,
2013-09-03, 01:42:05,VALID,917.505,VALID,0,VALID,82.7369,VALID,0.107441,VALID,20.1123,VALID,182,VALID,0,
2013-09-03, 01:43:05,VALID,917.445,VALID,0,VALID,82.1804,VALID,0,VALID,20.1318,VALID,102,VALID,0,
2013-09-03, 01:44:05,VALID,917.436,VALID,0,VALID,82.493,VALID,0.107441,VALID,20.1318,VALID,9,VALID,0,
2013-09-03, 01:45:05,VALID,917.431,VALID,0,VALID,81.7764,VALID,0,VALID,20.0944,VALID,194,VALID,0,
2013-09-03, 01:46:05,VALID,917.39,VALID,0,VALID,81.5553,VALID,0,VALID,20.1334,VALID,192,VALID,0,
2013-09-03, 01:47:05,VALID,917.344,VALID,0,VALID,81.7611,VALID,0,VALID,20.1529,VALID,192,VALID,0,
2013-09-03, 01:48:05,VALID,917.33,VALID,0,VALID,82.0203,VALID,0,VALID,20.1724,VALID,259,VALID,0,
2013-09-03, 01:49:05,VALID,917.305,VALID,0,VALID,81.8069,VALID,0,VALID,20.1513,VALID,229,VALID,0,
2013-09-03, 01:50:05,VALID,917.308,VALID,0,VALID,81.4562,VALID,0,VALID,20.1903,VALID,247,VALID,0,
2013-09-03, 01:51:05,VALID,917.289,VALID,0,VALID,82.5387,VALID,0,VALID,20.1708,VALID,167,VALID,0,
2013-09-03, 01:52:05,VALID,917.269,VALID,0,VALID,82.554,VALID,0,VALID,20.1334,VALID,167,VALID,0,
2013-09-03, 01:53:05,VALID,917.316,VALID,0,VALID,82.5387,VALID,0,VALID,20.0928,VALID,177,VALID,0,
2013-09-03, 01:54:05,VALID,917.288,VALID,0,VALID,82.5082,VALID,0,VALID,20.1139,VALID,203,VALID,0,
2013-09-03, 01:55:05,VALID,917.284,VALID,0,VALID,82.6607,VALID,0,VALID,20.0944,VALID,230,VALID,0,
2013-09-03, 01:56:05,VALID,917.32,VALID,0,VALID,83.4535,VALID,0,VALID,20.0749,VALID,224,VALID,0,
2013-09-03, 01:57:05,VALID,917.32,VALID,0,VALID,84.0558,VALID,0,VALID,19.9758,VALID,213,VALID,0,
2013-09-03, 01:58:05,VALID,917.297,VALID,0,VALID,85.0163,VALID,0,VALID,19.9173,VALID,213,VALID,0,
2013-09-03, 01:59:05,VALID,917.294,VALID,0,VALID,84.841,VALID,0,VALID,19.8198,VALID,213,VALID,0,
2013-09-03, 02:00:05,VALID,917.264,VALID,0,VALID,85.1154,VALID,0,VALID,19.7808,VALID,204,VALID,0,
2013-09-03, 02:01:05,VALID,917.296,VALID,0,VALID,85.2679,VALID,0.107441,VALID,19.7223,VALID,186,VALID,0,
2013-09-03, 02:02:05,VALID,917.251,VALID,0,VALID,85.5119,VALID,0,VALID,19.7028,VALID,186,VALID,0,
2013-09-03, 02:03:05,VALID,917.229,VALID,0,VALID,85.5805,VALID,0,VALID,19.6638,VALID,189,VALID,0,
2013-09-03, 02:04:05,VALID,917.236,VALID,0,VALID,86.3123,VALID,0.107441,VALID,19.6638,VALID,189,VALID,0,
2013-09-03, 02:05:05,VALID,917.22,VALID,0,VALID,85.8244,VALID,0.107441,VALID,19.5843,VALID,186,VALID,0,
2013-09-03, 02:06:05,VALID,917.206,VALID,0,VALID,86.0531,VALID,0.107441,VALID,19.5663,VALID,187,VALID,0,
2013-09-03, 02:07:05,VALID,917.18,VALID,0,VALID,86.9984,VALID,0,VALID,19.5468,VALID,187,VALID,0,
2013-09-03, 02:08:05,VALID,917.145,VALID,0,VALID,87.4253,VALID,0,VALID,19.4298,VALID,187,VALID,0,
2013-09-03, 02:09:05,VALID,917.147,VALID,0,VALID,87.3034,VALID,0,VALID,19.3713,VALID,187,VALID,0,
2013-09-03, 02:10:05,VALID,917.102,VALID,0,VALID,87.7074,VALID,0,VALID,19.3518,VALID,61,VALID,0,
2013-09-03, 02:11:05,VALID,917.115,VALID,0,VALID,87.654,VALID,0,VALID,19.2933,VALID,61,VALID,0,
2013-09-03, 02:12:05,VALID,917.053,VALID,0,VALID,87.4177,VALID,0.107441,VALID,19.2528,VALID,60,VALID,0,
2013-09-03, 02:13:05,VALID,917.072,VALID,0,VALID,87.189,VALID,0,VALID,19.2933,VALID,61,VALID,0,
2013-09-03, 02:14:05,VALID,917.032,VALID,0,VALID,86.9984,VALID,0,VALID,19.2933,VALID,61,VALID,0,
2013-09-03, 02:15:05,VALID,917.012,VALID,0,VALID,86.2437,VALID,0,VALID,19.3323,VALID,61,VALID,0,
2013-09-03, 02:16:05,VALID,917.002,VALID,0,VALID,85.9693,VALID,0,VALID,19.3713,VALID,61,VALID,0,
2013-09-03, 02:17:05,VALID,916.986,VALID,0,VALID,86.2361,VALID,0,VALID,19.3713,VALID,61,VALID,0,
2013-09-03, 02:18:05,VALID,916.987,VALID,0,VALID,87.0289,VALID,0,VALID,19.3323,VALID,61,VALID,0,
2013-09-03, 02:19:05,VALID,916.955,VALID,0,VALID,86.8688,VALID,0,VALID,19.2738,VALID,61,VALID,0,
2013-09-03, 02:20:05,VALID,916.967,VALID,0,VALID,86.3276,VALID,0,VALID,19.2543,VALID,61,VALID,0,
2013-09-03, 02:21:05,VALID,916.919,VALID,0,VALID,86.137,VALID,0,VALID,19.2543,VALID,61,VALID,0,
2013-09-03, 02:22:05,VALID,916.927,VALID,0,VALID,85.9616,VALID,0,VALID,19.3128,VALID,61,VALID,0,
2013-09-03, 02:23:05,VALID,916.928,VALID,0,VALID,85.1307,VALID,0,VALID,19.3518,VALID,200,VALID,0,
2013-09-03, 02:24:05,VALID,916.93,VALID,0,VALID,84.4903,VALID,0,VALID,19.3908,VALID,200,VALID,0,
2013-09-03, 02:25:05,VALID,916.902,VALID,0,VALID,83.7737,VALID,0,VALID,19.4898,VALID,231,VALID,0,
2013-09-03, 02:26:05,VALID,916.861,VALID,0,VALID,82.8589,VALID,0,VALID,19.6053,VALID,238,VALID,0,
2013-09-03, 02:27:05,VALID,916.872,VALID,0,VALID,82.9733,VALID,0,VALID,19.6833,VALID,238,VALID,0,
2013-09-03, 02:28:05,VALID,916.867,VALID,0,VALID,82.2567,VALID,0,VALID,19.7028,VALID,219,VALID,0,
2013-09-03, 02:29:05,VALID,916.876,VALID,0,VALID,82.7903,VALID,0,VALID,19.7613,VALID,219,VALID,0,
2013-09-03, 02:30:05,VALID,916.87,VALID,0,VALID,83.5831,VALID,0,VALID,19.7613,VALID,219,VALID,0,
2013-09-03, 02:31:05,VALID,916.895,VALID,0,VALID,84.6885,VALID,0,VALID,19.7028,VALID,219,VALID,0,
2013-09-03, 02:32:05,VALID,916.884,VALID,0,VALID,85.0163,VALID,0,VALID,19.5468,VALID,179,VALID,0,
2013-09-03, 02:33:05,VALID,916.894,VALID,0,VALID,84.8867,VALID,0,VALID,19.4688,VALID,179,VALID,0,
2013-09-03, 02:34:05,VALID,916.833,VALID,0,VALID,85.2984,VALID,0,VALID,19.4298,VALID,184,VALID,0,
2013-09-03, 02:35:05,VALID,916.808,VALID,0,VALID,86.4343,VALID,0,VALID,19.4103,VALID,246,VALID,0,
2013-09-03, 02:36:05,VALID,916.829,VALID,0,VALID,86.9603,VALID,0,VALID,19.4298,VALID,257,VALID,0,
2013-09-03, 02:37:05,VALID,916.821,VALID,0,VALID,86.8917,VALID,0,VALID,19.4298,VALID,237,VALID,0,
2013-09-03, 02:38:05,VALID,916.783,VALID,0,VALID,86.9527,VALID,0,VALID,19.3908,VALID,237,VALID,0,
2013-09-03, 02:39:05,VALID,916.786,VALID,0,VALID,87.311,VALID,0,VALID,19.3338,VALID,237,VALID,0,
2013-09-03, 02:40:05,VALID,916.759,VALID,0,VALID,87.7989,VALID,0,VALID,19.2948,VALID,237,VALID,0,
2013-09-03, 02:41:05,VALID,916.788,VALID,0,VALID,88.1038,VALID,0,VALID,19.2933,VALID,255,VALID,0,
2013-09-03, 02:42:05,VALID,916.741,VALID,0,VALID,88.2334,VALID,0,VALID,19.3128,VALID,255,VALID,0,
2013-09-03, 02:43:05,VALID,916.77,VALID,0,VALID,88.302,VALID,0,VALID,19.3728,VALID,255,VALID,0,
2013-09-03, 02:44:05,VALID,916.76,VALID,0,VALID,88.4545,VALID,0,VALID,19.3713,VALID,294,VALID,0,
2013-09-03, 02:45:05,VALID,916.74,VALID,0,VALID,88.8128,VALID,0,VALID,19.4118,VALID,269,VALID,0,
2013-09-03, 02:46:05,VALID,916.712,VALID,0,VALID,89.1863,VALID,0,VALID,19.4103,VALID,253,VALID,0,
2013-09-03, 02:47:05,VALID,916.723,VALID,0,VALID,89.0491,VALID,0,VALID,19.4103,VALID,256,VALID,0,
2013-09-03, 02:48:05,VALID,916.732,VALID,0,VALID,89.1787,VALID,0,VALID,19.4298,VALID,254,VALID,0,
2013-09-03, 02:49:05,VALID,916.737,VALID,0,VALID,89.1635,VALID,0,VALID,19.4103,VALID,254,VALID,0,
2013-09-03, 02:50:05,VALID,916.739,VALID,0,VALID,89.4303,VALID,0,VALID,19.3908,VALID,254,VALID,0,
2013-09-03, 02:51:05,VALID,916.743,VALID,0,VALID,89.6437,VALID,0,VALID,19.3713,VALID,254,VALID,0,
2013-09-03, 02:52:05,VALID,916.725,VALID,0,VALID,89.7886,VALID,0,VALID,19.3323,VALID,254,VALID,0,
2013-09-03, 02:53:05,VALID,916.707,VALID,0,VALID,90.4213,VALID,0,VALID,19.2933,VALID,260,VALID,0,
2013-09-03, 02:54:05,VALID,916.714,VALID,0,VALID,91.0388,VALID,0,VALID,19.2738,VALID,266,VALID,0,
2013-09-03, 02:55:05,VALID,916.722,VALID,0,VALID,91.3285,VALID,0,VALID,19.2543,VALID,266,VALID,0,
2013-09-03, 02:56:05,VALID,916.685,VALID,0,VALID,91.5725,VALID,0,VALID,19.2348,VALID,270,VALID,0,
2013-09-03, 02:57:05,VALID,916.657,VALID,0,VALID,91.7631,VALID,0,VALID,19.2153,VALID,270,VALID,0,
2013-09-03, 02:58:05,VALID,916.662,VALID,0,VALID,91.9613,VALID,0,VALID,19.1763,VALID,270,VALID,0,
2013-09-03, 02:59:05,VALID,916.647,VALID,0,VALID,92.1442,VALID,0,VALID,19.2168,VALID,270,VALID,0,
2013-09-03, 03:00:05,VALID,916.64,VALID,0,VALID,92.1366,VALID,0,VALID,19.1763,VALID,270,VALID,0,
2013-09-03, 03:01:05,VALID,916.622,VALID,0,VALID,92.0299,VALID,0,VALID,19.1583,VALID,270,VALID,0,
2013-09-03, 03:02:05,VALID,916.564,VALID,0,VALID,92.0985,VALID,0,VALID,19.1178,VALID,270,VALID,0,
2013-09-03, 03:03:05,VALID,916.572,VALID,0,VALID,92.1823,VALID,0,VALID,19.1178,VALID,270,VALID,0,
2013-09-03, 03:04:05,VALID,916.571,VALID,0,VALID,92.1366,VALID,0,VALID,19.0593,VALID,169,VALID,0,
2013-09-03, 03:05:05,VALID,916.564,VALID,0,VALID,92.1976,VALID,0,VALID,18.9619,VALID,169,VALID,0,
2013-09-03, 03:06:05,VALID,916.542,VALID,0,VALID,92.3806,VALID,0,VALID,18.9229,VALID,169,VALID,0,
2013-09-03, 03:07:05,VALID,916.535,VALID,0,VALID,92.5178,VALID,0,VALID,18.9229,VALID,169,VALID,0,
2013-09-03, 03:08:05,VALID,916.559,VALID,0,VALID,92.5559,VALID,0,VALID,18.9034,VALID,169,VALID,0,
2013-09-03, 03:09:05,VALID,916.558,VALID,0,VALID,92.6169,VALID,0,VALID,18.8644,VALID,171,VALID,0,
2013-09-03, 03:10:05,VALID,916.548,VALID,0,VALID,92.7007,VALID,0,VALID,18.8658,VALID,172,VALID,0,
2013-09-03, 03:11:05,VALID,916.561,VALID,0,VALID,92.7236,VALID,0,VALID,18.8463,VALID,172,VALID,0,
2013-09-03, 03:12:05,VALID,916.569,VALID,0,VALID,92.7312,VALID,0,VALID,18.8463,VALID,172,VALID,0,
2013-09-03, 03:13:05,VALID,916.573,VALID,0,VALID,92.7007,VALID,0,VALID,18.8853,VALID,192,VALID,0,
2013-09-03, 03:14:05,VALID,916.581,VALID,0,VALID,92.5788,VALID,0,VALID,18.8839,VALID,196,VALID,0,
2013-09-03, 03:15:05,VALID,916.589,VALID,0,VALID,92.5178,VALID,0,VALID,18.9034,VALID,179,VALID,0,
2013-09-03, 03:16:05,VALID,916.588,VALID,0,VALID,92.3729,VALID,0,VALID,18.9229,VALID,180,VALID,0,
2013-09-03, 03:17:05,VALID,916.624,VALID,0,VALID,92.3196,VALID,0,VALID,18.9424,VALID,180,VALID,0,
2013-09-03, 03:18:05,VALID,916.585,VALID,0,VALID,92.2357,VALID,0,VALID,18.9619,VALID,180,VALID,0,
2013-09-03, 03:19:05,VALID,916.606,VALID,0,VALID,92.1747,VALID,0,VALID,18.9424,VALID,180,VALID,0,
2013-09-03, 03:20:05,VALID,916.596,VALID,0,VALID,92.0832,VALID,0,VALID,18.9424,VALID,180,VALID,0,
2013-09-03, 03:21:05,VALID,916.601,VALID,0,VALID,92.0527,VALID,0,VALID,18.9619,VALID,180,VALID,0,
2013-09-03, 03:22:05,VALID,916.62,VALID,0,VALID,92.0375,VALID,0,VALID,18.9619,VALID,180,VALID,0,
2013-09-03, 03:23:05,VALID,916.644,VALID,0,VALID,92.0299,VALID,0,VALID,18.9619,VALID,180,VALID,0,
2013-09-03, 03:24:05,VALID,916.648,VALID,0,VALID,92.0909,VALID,0,VALID,18.9424,VALID,180,VALID,0,
2013-09-03, 03:25:05,VALID,916.625,VALID,0,VALID,92.0985,VALID,0,VALID,18.9424,VALID,180,VALID,0,
2013-09-03, 03:26:05,VALID,916.641,VALID,0,VALID,92.0527,VALID,0,VALID,18.9814,VALID,180,VALID,0,
2013-09-03, 03:27:05,VALID,916.658,VALID,0,VALID,91.824,VALID,0,VALID,19.0203,VALID,180,VALID,0,
2013-09-03, 03:28:05,VALID,916.653,VALID,0,VALID,91.6335,VALID,0,VALID,19.0008,VALID,170,VALID,0,
2013-09-03, 03:29:05,VALID,916.665,VALID,0,VALID,91.4124,VALID,0,VALID,19.0398,VALID,170,VALID,0,
2013-09-03, 03:30:05,VALID,916.672,VALID,0,VALID,91.1227,VALID,0,VALID,19.0593,VALID,170,VALID,0,
2013-09-03, 03:31:05,VALID,916.667,VALID,0,VALID,90.7873,VALID,0,VALID,19.1178,VALID,169,VALID,0,
2013-09-03, 03:32:05,VALID,916.682,VALID,0,VALID,90.5891,VALID,0,VALID,19.0983,VALID,169,VALID,0,
2013-09-03, 03:33:05,VALID,916.646,VALID,0,VALID,90.6653,VALID,0,VALID,19.0398,VALID,169,VALID,0,
2013-09-03, 03:34:05,VALID,916.667,VALID,0,VALID,90.8635,VALID,0,VALID,19.0008,VALID,169,VALID,0,
2013-09-03, 03:35:05,VALID,916.636,VALID,0,VALID,90.429,VALID,0.107441,VALID,18.9814,VALID,108,VALID,0,
2013-09-03, 03:36:05,VALID,916.631,VALID,0,VALID,89.9411,VALID,0.107441,VALID,18.9828,VALID,108,VALID,0,
2013-09-03, 03:37:05,VALID,916.625,VALID,0,VALID,89.9106,VALID,0,VALID,18.9424,VALID,93,VALID,0,
2013-09-03, 03:38:05,VALID,916.625,VALID,0,VALID,90.124,VALID,0,VALID,18.9034,VALID,93,VALID,0,
2013-09-03, 03:39:04,VALID,916.597,VALID,0,VALID,90.4061,VALID,0,VALID,18.8644,VALID,94,VALID,0,
2013-09-03, 03:40:04,VALID,916.594,VALID,0,VALID,90.6424,VALID,0,VALID,18.8449,VALID,94,VALID,0,
2013-09-03, 03:41:04,VALID,916.548,VALID,0,VALID,90.8178,VALID,0,VALID,18.8059,VALID,94,VALID,0,
2013-09-03, 03:42:04,VALID,916.518,VALID,0,VALID,90.8483,VALID,0,VALID,18.8059,VALID,94,VALID,0,
2013-09-03, 03:43:04,VALID,916.501,VALID,0,VALID,90.8483,VALID,0,VALID,18.7864,VALID,94,VALID,0,
2013-09-03, 03:44:04,VALID,916.495,VALID,0,VALID,90.955,VALID,0,VALID,18.7864,VALID,106,VALID,0,
2013-09-03, 03:45:04,VALID,916.472,VALID,0,VALID,91.0007,VALID,0,VALID,18.7864,VALID,102,VALID,0,
2013-09-03, 03:46:04,VALID,916.489,VALID,0,VALID,91.0846,VALID,0,VALID,18.7474,VALID,94,VALID,0,
2013-09-03, 03:47:04,VALID,916.455,VALID,0,VALID,91.1837,VALID,0,VALID,18.7279,VALID,94,VALID,0,
2013-09-03, 03:48:04,VALID,916.497,VALID,0,VALID,91.2828,VALID,0.107441,VALID,18.6889,VALID,94,VALID,0,
2013-09-03, 03:49:04,VALID,916.508,VALID,0,VALID,91.4962,VALID,0.107441,VALID,18.6304,VALID,94,VALID,0,
2013-09-03, 03:50:04,VALID,916.524,VALID,0,VALID,91.7707,VALID,0.107441,VALID,18.5914,VALID,94,VALID,0,
2013-09-03, 03:51:04,VALID,916.553,VALID,0,VALID,91.9308,VALID,0.107441,VALID,18.572,VALID,94,VALID,0,
2013-09-03, 03:52:04,VALID,916.568,VALID,0,VALID,91.9536,VALID,0,VALID,18.5525,VALID,94,VALID,0,
2013-09-03, 03:53:04,VALID,916.567,VALID,0,VALID,92.0375,VALID,0.107441,VALID,18.5121,VALID,94,VALID,0,
2013-09-03, 03:54:04,VALID,916.579,VALID,0,VALID,92.2281,VALID,0,VALID,18.494,VALID,94,VALID,0,
2013-09-03, 03:55:04,VALID,916.595,VALID,0,VALID,92.3196,VALID,0,VALID,18.4745,VALID,64,VALID,0,
2013-09-03, 03:56:04,VALID,916.611,VALID,0,VALID,92.2891,VALID,0,VALID,18.455,VALID,64,VALID,0,
2013-09-03, 03:57:04,VALID,916.598,VALID,0,VALID,92.3348,VALID,0,VALID,18.4355,VALID,64,VALID,0,
2013-09-03, 03:58:04,VALID,916.604,VALID,0,VALID,92.5559,VALID,0,VALID,18.377,VALID,64,VALID,0,